TimeEST,TemperatureF,Dew PointF,Humidity,Sea Level PressureIn,VisibilityMPH,Wind Direction,Wind SpeedMPH,Gust SpeedMPH,PrecipitationIn,Events,Conditions,WindDirDegrees,DateUTC
12:56 AM,30.9,12.9,47,30.17,10.0,West,4.6,-,N/A,,Clear,260,2014-01-23 05:56:00
1:56 AM,30.0,12.9,49,30.18,10.0,West,5.8,-,N/A,,Clear,260,2014-01-23 06:56:00
2:56 AM,30.9,10.9,43,30.18,10.0,West,4.6,-,N/A,,Partly Cloudy,270,2014-01-23 07:56:00
3:56 AM,30.0,10.9,45,30.20,10.0,West,6.9,-,N/A,,Scattered Clouds,260,2014-01-23 08:56:00
4:56 AM,30.9,9.0,40,30.21,10.0,WNW,8.1,-,N/A,,Scattered Clouds,290,2014-01-23 09:56:00
5:56 AM,30.0,9.0,41,30.24,10.0,West,6.9,-,N/A,,Scattered Clouds,280,2014-01-23 10:56:00
6:56 AM,28.9,9.0,43,30.27,10.0,West,5.8,-,N/A,,Scattered Clouds,280,2014-01-23 11:56:00
7:56 AM,28.9,10.9,47,30.29,10.0,West,4.6,-,N/A,,Mostly Cloudy,280,2014-01-23 12:56:00
8:56 AM,33.1,10.0,38,30.32,10.0,WNW,8.1,-,N/A,,Mostly Cloudy,300,2014-01-23 13:56:00
9:56 AM,35.1,9.0,34,30.33,10.0,NNW,8.1,-,N/A,,Mostly Cloudy,330,2014-01-23 14:56:00
10:56 AM,39.9,9.0,28,30.35,10.0,NW,8.1,-,N/A,,Mostly Cloudy,320,2014-01-23 15:56:00
11:56 AM,43.0,9.0,25,30.32,10.0,North,11.5,-,N/A,,Mostly Cloudy,350,2014-01-23 16:56:00
12:56 PM,43.0,9.0,25,30.30,10.0,Variable,5.8,-,N/A,,Mostly Cloudy,0,2014-01-23 17:56:00
1:56 PM,44.1,8.1,23,30.27,10.0,NNW,8.1,-,N/A,,Mostly Cloudy,340,2014-01-23 18:56:00
2:56 PM,44.1,8.1,23,30.28,10.0,West,3.5,-,N/A,,Mostly Cloudy,280,2014-01-23 19:56:00
3:56 PM,45.0,8.1,22,30.29,10.0,West,9.2,-,N/A,,Mostly Cloudy,280,2014-01-23 20:56:00
4:56 PM,44.1,9.0,24,30.30,10.0,West,6.9,-,N/A,,Mostly Cloudy,270,2014-01-23 21:56:00
5:56 PM,42.1,12.0,29,30.32,10.0,West,4.6,-,N/A,,Mostly Cloudy,260,2014-01-23 22:56:00
6:56 PM,41.0,14.0,33,30.35,10.0,WNW,4.6,-,N/A,,Mostly Cloudy,300,2014-01-23 23:56:00
7:56 PM,39.9,12.9,33,30.36,10.0,Calm,Calm,-,N/A,,Mostly Cloudy,0,2014-01-24 00:56:00
8:56 PM,37.9,17.1,43,30.37,10.0,Calm,Calm,-,N/A,,Mostly Cloudy,0,2014-01-24 01:56:00
9:56 PM,34.0,19.0,54,30.37,10.0,SSW,3.5,-,N/A,,Mostly Cloudy,210,2014-01-24 02:56:00
10:56 PM,36.0,17.1,46,30.37,10.0,WSW,3.5,-,N/A,,Mostly Cloudy,250,2014-01-24 03:56:00
11:56 PM,37.0,15.1,41,30.37,10.0,WNW,9.2,-,N/A,,Mostly Cloudy,300,2014-01-24 04:56:00